FW3814 Weather Reports


time (UTC)temp
C
wind
direction
speed
KPH
gust
KPH
rain 1hr
cm
rain 24hr
cm
rain mn
cm
humidity
%
barometer
mb
20260903044005 20 360 0.0 3.2 0.00 0.00 0.00 60 1018.5
20260903043505 20 14 3.2 8.0 0.00 0.00 0.00 61 1018.4
20260903043005 20 12 8.0 9.7 0.00 0.00 0.00 61 1018.3
20260903042526 20 9 8.0 9.7 0.00 0.00 0.00 61 1018.5
20260903042005 20 6 4.8 8.0 0.00 0.00 0.00 61 1018.4
20260903041505 21 8 1.6 4.8 0.00 0.00 0.00 60 1018.3
20260903041005 21 22 0.0 3.2 0.00 0.00 0.00 60 1018.4
20260903040526 21 0 0.0 0.0 0.00 0.00 0.00 60 1018.1
20260903040008 21 0 0.0 0.0 0.00 0.00 0.00 60 1018.3
20260903035505 21 0 0.0 0.0 0.00 0.00 0.00 60 1018.1
20260903035026 20 0 0.0 0.0 0.00 0.00 0.00 60 1018.1
20260903034505 21 0 0.0 0.0 0.00 0.00 0.00 60 1018.1
20260903034005 21 0 0.0 0.0 0.00 0.00 0.00 60 1017.9
20260903033505 21 0 0.0 0.0 0.00 0.00 0.00 59 1017.9
20260903033005 21 16 0.0 6.4 0.00 0.00 0.00 58 1018.0
20260903032526 21 16 0.0 6.4 0.00 0.00 0.00 57 1018.1
20260903032005 22 7 3.2 12.9 0.00 0.00 0.00 57 1017.9
20260903031505 22 18 8.0 12.9 0.00 0.00 0.00 56 1017.7
20260903031005 22 23 11.3 17.7 0.00 0.00 0.00 56 1017.8
20260903030505 22 16 14.5 17.7 0.00 0.00 0.00 56 1017.7
20260903030005 22 10 12.9 14.5 0.00 0.00 0.00 56 1017.8
20260903025505 22 14 11.3 12.9 0.00 0.00 0.00 56 1017.7
20260903025026 22 17 9.7 12.9 0.00 0.00 0.00 57 1017.9
20260903024505 22 23 9.7 12.9 0.00 0.00 0.00 58 1017.8
20260903024005 22 35 8.0 12.9 0.00 0.00 0.00 59 1017.9
20260903023505 22 30 11.3 16.1 0.00 0.00 0.00 55 1017.9
20260903023005 22 38 12.9 17.7 0.00 0.00 0.00 55 1017.9
20260903022505 22 39 14.5 19.3 0.00 0.00 0.00 55 1017.7
20260903022005 22 22 14.5 19.3 0.00 0.00 0.00 56 1017.9
20260903021505 22 18 11.3 16.1 0.00 0.00 0.00 60 1017.9
20260903021004 22 25 12.9 16.1 0.00 0.00 0.00 61 1017.9
20260903020526 21 19 12.9 16.1 0.00 0.00 0.00 63 1017.9
20260903020005 21 6 6.4 11.3 0.00 0.00 0.00 63 1017.8
20260903015505 21 360 6.4 9.7 0.00 0.00 0.00 65 1017.8
20260903015026 21 4 6.4 9.7 0.00 0.00 0.00 65 1017.8
20260903014505 21 5 4.8 6.4 0.00 0.00 0.00 65 1017.9
20260903014026 21 4 4.8 6.4 0.00 0.00 0.00 65 1017.9
20260903013505 21 9 4.8 6.4 0.00 0.00 0.00 65 1017.9
20260903013005 21 357 4.8 6.4 0.00 0.00 0.00 64 1017.8
20260903012505 21 348 6.4 9.7 0.00 0.00 0.00 64 1017.7
20260903012005 21 355 4.8 9.7 0.00 0.00 0.00 63 1017.8
20260903011505 22 13 4.8 11.3 0.00 0.00 0.00 63 1017.9
20260903011005 22 21 8.0 11.3 0.00 0.00 0.00 63 1017.9
20260903010505 22 31 9.7 11.3 0.00 0.00 0.00 63 1017.8
20260903010026 22 26 8.0 11.3 0.00 0.00 0.00 63 1017.8
20260903005504 22 9 8.0 9.7 0.00 0.00 0.00 63 1017.8
20260903005005 22 19 11.3 12.9 0.00 0.00 0.00 63 1017.9
20260903004526 22 27 8.0 12.9 0.00 0.00 0.00 63 1017.9
20260903004005 22 26 8.0 12.9 0.00 0.00 0.00 63 1017.8
20260903003505 22 22 8.0 11.3 0.00 0.00 0.00 64 1017.8
20260903003026 22 33 6.4 11.3 0.00 0.00 0.00 64 1017.8
20260903002505 22 27 8.0 11.3 0.00 0.00 0.00 64 1017.7
20260903002005 22 17 8.0 12.9 0.00 0.00 0.00 64 1017.9
20260903001505 21 7 6.4 12.9 0.00 0.00 0.00 65 1017.8
20260903001026 21 237 4.8 6.4 0.00 0.00 0.00 65 1017.8
20260903000526 21 243 4.8 6.4 0.00 0.00 0.00 66 1017.8
20260903000026 21 5 4.8 6.4 0.00 0.00 0.00 66 1017.7
20260902235505 21 12 4.8 6.4 0.00 0.00 0.00 66 1017.8
20260902235005 21 9 3.2 6.4 0.00 0.00 0.00 65 1017.7
20260902234526 22 7 3.2 6.4 0.00 0.00 0.00 65 1017.8
20260902234005 22 6 3.2 4.8 0.00 0.00 0.00 64 1017.8
20260902233505 22 360 1.6 4.8 0.00 0.00 0.00 64 1017.8
20260902233005 22 360 1.6 4.8 0.00 0.00 0.00 64 1017.8
20260902232505 22 360 0.0 3.2 0.00 0.00 0.00 64 1017.7
20260902232005 22 360 1.6 3.2 0.00 0.00 0.00 64 1017.7
20260902231505 22 353 6.4 11.3 0.00 0.00 0.00 64 1017.7
20260902231003 22 355 4.8 11.3 0.00 0.00 0.00 61 1017.8
20260902230503 22 2 6.4 11.3 0.00 0.00 0.00 61 1017.6
20260902230004 22 8 8.0 11.3 0.00 0.00 0.00 62 1017.6
20260902225524 22 3 8.0 12.9 0.00 0.00 0.00 62 1017.7
20260902225024 22 5 6.4 12.9 0.00 0.00 0.00 62 1017.7
20260902224524 22 2 6.4 9.7 0.00 0.00 0.00 62 1017.7
20260902224003 22 360 6.4 9.7 0.00 0.00 0.00 62 1017.7
20260902223524 22 4 4.8 6.4 0.00 0.00 0.00 61 1017.7
20260902223003 22 7 4.8 6.4 0.00 0.00 0.00 61 1017.7
20260902222503 22 2 6.4 9.7 0.00 0.00 0.00 61 1017.7
20260902222003 22 7 8.0 9.7 0.00 0.00 0.00 61 1017.7
20260902221503 22 22 8.0 11.3 0.00 0.00 0.00 61 1017.8
20260902221003 22 20 6.4 11.3 0.00 0.00 0.00 61 1017.8
20260902220524 22 14 6.4 6.4 0.00 0.00 0.00 61 1017.8
20260902220003 22 359 4.8 11.3 0.00 0.00 0.00 61 1017.5
20260902215503 22 357 6.4 12.9 0.00 0.00 0.00 61 1017.8
20260902215003 22 9 8.0 12.9 0.00 0.00 0.00 61 1017.7
20260902214503 22 19 6.4 12.9 0.00 0.00 0.00 61 1017.6
20260902214003 23 19 6.4 8.0 0.00 0.00 0.00 61 1017.7
20260902213503 23 10 6.4 6.4 0.00 0.00 0.00 61 1017.6
20260902213003 23 10 4.8 6.4 0.00 0.00 0.00 62 1017.5
20260902212503 23 17 1.6 6.4 0.00 0.00 0.00 62 1017.7
20260902212024 23 22 0.0 3.2 0.00 0.00 0.00 62 1017.5
20260902211503 22 13 1.6 6.4 0.00 0.00 0.00 62 1017.6
20260902211003 23 13 1.6 6.4 0.00 0.00 0.00 61 1017.5
20260902210503 23 10 1.6 3.2 0.00 0.00 0.00 61 1017.5
20260902210024 23 12 3.2 6.4 0.00 0.00 0.00 61 1017.5
20260902205503 23 12 3.2 6.4 0.00 0.00 0.00 60 1017.4
20260902205003 23 12 1.6 4.8 0.00 0.00 0.00 61 1017.3
20260902204503 23 0 0.0 0.0 0.00 0.00 0.00 61 1017.3
20260902204003 23 0 0.0 0.0 0.00 0.00 0.00 61 1017.5
20260902203503 23 0 0.0 0.0 0.00 0.00 0.00 62 1017.3
20260902203003 23 0 0.0 0.0 0.00 0.00 0.00 62 1017.5
20260902202503 23 360 0.0 3.2 0.00 0.00 0.00 63 1017.1
20260902202004 23 5 1.6 6.4 0.00 0.00 0.00 63 1017.2
20260902201503 23 6 1.6 6.4 0.00 0.00 0.00 63 1017.4
20260902201003 23 360 0.0 3.2 0.00 0.00 0.00 63 1017.2
20260902200503 23 0 0.0 0.0 0.00 0.00 0.00 62 1017.3
20260902200003 23 0 0.0 0.0 0.00 0.00 0.00 62 1017.3
20260902195504 24 0 0.0 0.0 0.00 0.00 0.00 61 1017.1
20260902195003 24 0 0.0 0.0 0.00 0.00 0.00 61 1017.2
20260902194503 24 22 0.0 3.2 0.00 0.00 0.00 62 1016.9
20260902194003 24 22 0.0 3.2 0.00 0.00 0.00 62 1017.1
20260902193503 24 22 0.0 3.2 0.00 0.00 0.00 62 1017.0
20260902193003 24 0 0.0 0.0 0.00 0.00 0.00 62 1017.1
20260902192503 24 0 0.0 0.0 0.00 0.00 0.00 61 1017.1
20260902192024 24 0 0.0 0.0 0.00 0.00 0.00 61 1017.1
20260902191503 24 0 0.0 0.0 0.00 0.00 0.00 61 1017.0
20260902191024 24 0 0.0 0.0 0.00 0.00 0.00 61 1017.0
20260902190524 24 0 0.0 0.0 0.00 0.00 0.00 60 1016.9
20260902190004 24 0 0.0 0.0 0.00 0.00 0.00 60 1016.9
20260902185524 24 0 0.0 0.0 0.00 0.00 0.00 60 1016.8
20260902185003 24 0 0.0 0.0 0.00 0.00 0.00 60 1016.8
20260902184524 25 0 0.0 0.0 0.00 0.00 0.00 59 1016.7
20260902184003 25 0 0.0 0.0 0.00 0.00 0.00 59 1016.6
20260902183524 25 0 0.0 0.0 0.00 0.00 0.00 59 1016.7
20260902183024 25 0 0.0 0.0 0.00 0.00 0.00 59 1016.7
20260902182503 25 0 0.0 0.0 0.00 0.00 0.00 59 1016.5
20260902182004 25 0 0.0 0.0 0.00 0.00 0.00 58 1016.5
20260902181503 25 0 0.0 0.0 0.00 0.00 0.00 56 1016.6
20260902181024 25 0 0.0 0.0 0.00 0.00 0.00 56 1016.6
20260902180503 26 0 0.0 0.0 0.00 0.00 0.00 55 1016.6
20260902180006 26 0 0.0 0.0 0.00 0.00 0.00 55 1016.4
20260902175503 26 0 0.0 0.0 0.00 0.00 0.00 55 1016.5
20260902175003 26 0 0.0 0.0 0.00 0.00 0.00 55 1016.5
20260902174524 26 0 0.0 0.0 0.00 0.00 0.00 54 1016.4
20260902174003 27 0 0.0 0.0 0.00 0.00 0.00 54 1016.2
20260902173524 27 0 0.0 0.0 0.00 0.00 0.00 53 1016.3
20260902173024 27 0 0.0 0.0 0.00 0.00 0.00 50 1016.3
20260902172503 28 0 0.0 0.0 0.00 0.00 0.00 48 1016.3
20260902172004 28 0 0.0 0.0 0.00 0.00 0.00 46 1016.3
20260902171503 28 0 0.0 0.0 0.00 0.00 0.00 45 1016.4
20260902171003 29 0 0.0 0.0 0.00 0.00 0.00 45 1016.4
20260902170503 29 0 0.0 0.0 0.00 0.00 0.00 44 1016.5
20260902170003 29 0 0.0 0.0 0.00 0.00 0.00 44 1016.4
20260902165503 29 0 0.0 0.0 0.00 0.00 0.00 44 1016.3
20260902165003 29 0 0.0 0.0 0.00 0.00 0.00 44 1016.4
20260902164503 29 0 0.0 0.0 0.00 0.00 0.00 43 1016.4
20260902164024 29 315 0.0 3.2 0.00 0.00 0.00 44 1016.3
20260902163503 29 315 0.0 3.2 0.00 0.00 0.00 44 1016.4
20260902163003 29 292 1.6 4.8 0.00 0.00 0.00 44 1016.3
20260902162504 29 278 1.6 6.4 0.00 0.00 0.00 44 1016.2
20260902162024 29 280 1.6 6.4 0.00 0.00 0.00 44 1016.4
20260902161503 30 315 0.0 3.2 0.00 0.00 0.00 45 1016.2
20260902161024 30 315 0.0 3.2 0.00 0.00 0.00 45 1016.3
20260902160503 29 0 0.0 0.0 0.00 0.00 0.00 44 1016.4
20260902160005 29 360 0.0 3.2 0.00 0.00 0.00 44 1016.3
20260902155503 29 329 1.6 4.8 0.00 0.00 0.00 45 1016.4
20260902155003 30 310 0.0 4.8 0.00 0.00 0.00 45 1016.5
20260902154524 29 298 3.2 8.0 0.00 0.00 0.00 44 1016.5
20260902154003 29 304 4.8 8.0 0.00 0.00 0.00 43 1016.6
20260902153503 29 306 1.6 6.4 0.00 0.00 0.00 43 1016.6
20260902153003 29 267 0.0 3.2 0.00 0.00 0.00 43 1016.8
20260902152524 29 0 0.0 0.0 0.00 0.00 0.00 44 1016.6
20260902152003 28 0 0.0 0.0 0.00 0.00 0.00 44 1016.7
20260902151503 29 0 0.0 0.0 0.00 0.00 0.00 43 1016.9
20260902151024 29 0 0.0 0.0 0.00 0.00 0.00 43 1016.6
20260902150503 30 315 0.0 3.2 0.00 0.00 0.00 44 1016.7
20260902150003 30 297 1.6 11.3 0.00 0.00 0.00 44 1016.9
20260902145503 29 295 1.6 11.3 0.00 0.00 0.00 43 1016.9
20260902145003 29 315 1.6 6.4 0.00 0.00 0.00 43 1017.0
20260902144503 29 315 4.8 6.4 0.00 0.00 0.00 43 1017.0
20260902144003 30 315 3.2 6.4 0.00 0.00 0.00 43 1017.0
20260902143503 30 0 0.0 0.0 0.00 0.00 0.00 43 1016.9
20260902143003 30 0 0.0 0.0 0.00 0.00 0.00 43 1017.0
20260902142503 30 247 0.0 1.6 0.00 0.00 0.00 43 1017.0
20260902142003 30 294 0.0 1.6 0.00 0.00 0.00 42 1017.0
20260902141524 30 278 1.6 9.7 0.00 0.00 0.00 43 1016.9
20260902141003 30 308 6.4 9.7 0.00 0.00 0.00 43 1017.1
20260902140503 30 315 6.4 9.7 0.00 0.00 0.00 44 1017.0
20260902140003 30 311 1.6 9.7 0.00 0.00 0.00 44 1017.2
20260902135503 30 311 1.6 6.4 0.00 0.00 0.00 44 1017.3
20260902135003 30 290 4.8 11.3 0.00 0.00 0.00 44 1017.1
20260902134503 30 282 3.2 11.3 0.00 0.00 0.00 44 1017.4
20260902134003 30 315 0.0 3.2 0.00 0.00 0.00 45 1017.1
20260902133524 30 315 1.6 11.3 0.00 0.00 0.00 44 1017.2
20260902133003 30 315 3.2 11.3 0.00 0.00 0.00 44 1017.3
20260902132503 30 271 4.8 9.7 0.00 0.00 0.00 44 1017.2
20260902132003 30 269 6.4 11.3 0.00 0.00 0.00 44 1017.3
20260902131503 30 274 6.4 11.3 0.00 0.00 0.00 44 1017.3
20260902131003 30 283 4.8 11.3 0.00 0.00 0.00 44 1017.4
20260902130503 30 305 1.6 1.6 0.00 0.00 0.00 46 1017.5
20260902130003 30 249 3.2 9.7 0.00 0.00 0.00 46 1017.5
20260902125524 30 247 3.2 9.7 0.00 0.00 0.00 46 1017.6
20260902125024 30 226 1.6 9.7 0.00 0.00 0.00 47 1017.8
20260902124524 30 233 3.2 9.7 0.00 0.00 0.00 47 1017.8
20260902124003 30 270 1.6 8.0 0.00 0.00 0.00 46 1017.7
20260902123503 30 245 1.6 4.8 0.00 0.00 0.00 47 1017.9
20260902123003 30 133 1.6 4.8 0.00 0.00 0.00 48 1017.8
20260902122503 29 360 0.0 3.2 0.00 0.00 0.00 50 1017.9
20260902122003 29 10 1.6 9.7 0.00 0.00 0.00 50 1017.9
20260902121503 29 14 1.6 9.7 0.00 0.00 0.00 50 1018.0
20260902121003 29 0 0.0 0.0 0.00 0.00 0.00 50 1017.9
20260902120503 28 0 0.0 0.0 0.00 0.00 0.00 50 1018.0
20260902120003 28 0 0.0 0.0 0.00 0.00 0.00 50 1018.3
20260902115524 28 0 0.0 0.0 0.00 0.00 0.00 50 1018.3
20260902115003 28 0 0.0 0.0 0.00 0.00 0.00 50 1018.5
20260902114505 28 247 0.0 3.2 0.00 0.00 0.00 50 1018.3
20260902114005 29 227 1.6 6.4 0.00 0.00 0.00 50 1018.4
20260902113505 29 195 1.6 6.4 0.00 0.00 0.00 50 1018.5
20260902113026 29 91 1.6 6.4 0.00 0.00 0.00 51 1018.6
20260902112505 29 174 1.6 8.0 0.00 0.00 0.00 51 1018.6
20260902112005 28 244 3.2 8.0 0.00 0.00 0.00 51 1018.6
20260902111505 28 294 3.2 8.0 0.00 0.00 0.00 51 1018.7
20260902111005 28 313 4.8 8.0 0.00 0.10 0.00 52 1018.7
20260902110505 28 299 4.8 8.0 0.00 0.13 0.00 52 1018.8
20260902110007 28 258 1.6 8.0 0.00 0.13 0.00 52 1018.9
20260902105505 28 224 0.0 1.6 0.00 0.13 0.00 53 1019.0
20260902105005 28 0 0.0 0.0 0.00 0.13 0.00 54 1019.0
20260902104505 27 0 0.0 0.0 0.00 0.13 0.00 54 1019.0
20260902104005 27 54 1.6 4.8 0.00 0.71 0.00 54 1019.0
20260902103505 27 37 1.6 4.8 0.00 0.84 0.00 58 1019.0
20260902103005 27 32 1.6 4.8 0.00 1.75 0.00 58 1019.1
20260902102505 27 3 0.0 3.2 0.00 2.11 0.00 55 1019.0
20260902102005 27 315 0.0 3.2 0.00 2.11 0.00 59 1019.1
20260902101505 27 0 0.0 0.0 0.00 2.11 0.00 59 1019.0
20260902101005 27 0 0.0 0.0 0.00 2.11 0.00 59 1019.1
20260902100505 27 0 0.0 0.0 0.00 2.11 0.00 59 1019.2
20260902100005 27 178 1.6 8.0 0.00 2.11 0.00 59 1019.3
20260902095505 27 180 1.6 8.0 0.00 2.11 0.00 59 1019.1
20260902095005 27 170 1.6 8.0 0.00 2.11 0.00 55 1019.2
20260902094505 27 0 0.0 0.0 0.00 2.11 0.00 60 1019.4
20260902094005 26 0 0.0 0.0 0.00 2.11 0.00 61 1019.4
20260902093505 26 315 0.0 1.6 0.00 2.11 0.00 61 1019.5
20260902093005 26 315 1.6 3.2 0.00 2.11 0.00 61 1019.3
20260902092505 26 267 1.6 6.4 0.00 2.11 0.00 60 1019.4
20260902092005 26 202 0.0 6.4 0.00 2.11 0.00 60 1019.5
20260902091526 27 202 0.0 6.4 0.00 2.11 0.00 61 1019.4
20260902091005 27 0 0.0 0.0 0.00 2.11 0.00 61 1019.5
20260902090505 26 0 0.0 0.0 0.00 2.11 0.00 61 1019.5
20260902090005 26 179 1.6 9.7 0.00 2.11 0.00 61 1019.5
20260902085505 26 146 4.8 9.7 0.00 2.11 0.00 60 1019.5
20260902085005 26 120 3.2 9.7 0.00 2.11 0.00 61 1019.4
20260902084505 26 157 1.6 6.4 0.00 2.11 0.00 62 1019.3
20260902084005 26 154 1.6 6.4 0.00 2.11 0.00 62 1019.3
20260902083526 26 112 0.0 3.2 0.00 2.11 0.00 62 1019.3
20260902083005 25 176 0.0 4.8 0.00 2.13 0.00 63 1019.2
20260902082505 25 152 1.6 6.4 0.00 2.13 0.00 62 1019.2
20260902082005 25 135 1.6 6.4 0.00 2.13 0.00 62 1019.2
20260902081505 25 0 0.0 0.0 0.00 2.13 0.00 64 1019.3
20260902081005 25 0 0.0 0.0 0.00 2.13 0.00 65 1019.3
20260902080505 25 0 0.0 0.0 0.00 2.13 0.00 66 1019.3
20260902080005 25 0 0.0 0.0 0.00 2.13 0.00 66 1019.1
20260902075505 25 0 0.0 0.0 0.00 2.13 0.00 69 1019.2
20260902075026 25 67 0.0 1.6 0.00 2.13 0.00 69 1019.2
20260902074505 24 30 1.6 6.4 0.00 2.13 0.00 69 1019.1
20260902074005 23 28 1.6 6.4 0.00 2.13 0.00 68 1019.0
20260902073505 23 11 1.6 6.4 0.00 2.13 0.00 68 1019.2
20260902073005 23 12 3.2 6.4 0.00 2.13 0.00 68 1019.2
20260902072505 23 16 1.6 6.4 0.00 2.13 0.00 68 1019.1
20260902072005 23 22 0.0 6.4 0.00 2.13 0.00 69 1019.2
20260902071505 23 51 1.6 6.4 0.00 2.13 0.00 69 1019.2
20260902071026 23 29 3.2 6.4 0.00 2.13 0.00 69 1019.0
20260902070505 24 27 3.2 6.4 0.00 2.13 0.00 69 1019.1
20260902070007 24 51 1.6 3.2 0.00 2.13 0.00 69 1018.8
20260902065526 24 0 0.0 0.0 0.00 2.13 0.00 70 1018.9
20260902065005 23 44 0.0 3.2 0.00 2.13 0.00 71 1018.8
20260902064526 23 44 0.0 3.2 0.00 2.13 0.00 71 1018.8
20260902064005 22 22 1.6 6.4 0.00 2.13 0.00 72 1018.8
20260902063505 22 12 3.2 6.4 0.00 2.13 0.00 72 1018.6
20260902063005 22 1 3.2 6.4 0.00 2.13 0.00 72 1018.8
20260902062505 22 4 1.6 6.4 0.00 2.13 0.00 73 1018.9
20260902062005 22 9 3.2 8.0 0.00 2.13 0.00 76 1018.7
20260902061505 21 13 4.8 8.0 0.00 2.13 0.00 77 1018.6
20260902061005 21 18 3.2 8.0 0.00 2.13 0.00 77 1018.6
20260902060505 21 5 0.0 6.4 0.00 2.13 0.00 78 1018.7
20260902060005 21 15 3.2 6.4 0.00 2.13 0.00 78 1018.7
20260902055505 21 17 3.2 6.4 0.00 2.13 0.00 78 1018.5
20260902055005 21 12 1.6 4.8 0.00 2.13 0.00 79 1018.5
20260902054505 20 11 1.6 6.4 0.00 2.13 0.00 79 1018.5
20260902054026 20 9 1.6 6.4 0.00 2.13 0.00 79 1018.5
20260902053505 20 360 0.0 3.2 0.00 2.13 0.00 79 1018.4
20260902053005 20 0 0.0 0.0 0.00 2.13 0.00 79 1018.6
20260902052526 20 0 0.0 0.0 0.00 2.13 0.00 79 1018.4
20260902052005 20 0 0.0 0.0 0.00 2.13 0.00 79 1018.4
20260902051505 20 0 0.0 0.0 0.00 2.13 0.00 79 1018.1
20260902051026 20 0 0.0 0.0 0.00 2.13 0.00 79 1017.9
20260902050505 20 0 0.0 0.0 0.00 2.13 0.00 78 1018.1
20260902050007 20 0 0.0 0.0 0.00 2.13 0.00 78 1018.4
20260902045505 20 0 0.0 0.0 0.00 2.13 0.00 78 1018.1
20260902045005 20 0 0.0 0.0 0.00 2.13 0.00 78 1018.0
20260902044505 20 15 0.0 3.2 0.00 2.13 0.00 78 1018.1